Regional Weather Roundup
Issued by NWS Boston, MA

Current Version | Previous Version | Text Only | Print | Product List | Glossary On
Versions: 1 2 3 4 5 6 7 8 9 10 11 12 13 14 15 16 17 18 19 20 21 22 23 24 25 26 27 28
000 ASUS41 KBOX 241210 RWRBOX REGIONAL WEATHER ROUNDUP NATIONAL WEATHER SERVICE TAUNTON MA 800 AM EDT WED MAY 24 2017 NOTE: "FAIR" INDICATES FEW OR NO CLOUDS BELOW 12,000 FEET WITH NO SIGNIFICANT WEATHER AND/OR OBSTRUCTIONS TO VISIBILITY. MAZALL-241300- EASTERN MASSACHUSETTS CITY SKY/WX TMP DP RH WIND PRES REMARKS BOSTON CLOUDY 56 54 93 E5 29.78S 6HR MIN TEMP: 55; 6HR MAX TEMP: 58; BEVERLY CLOUDY 57 55 93 CALM 29.77F LAWRENCE CLOUDY 59 54 83 NE5 29.80S BEDFORD CLOUDY 57 52 83 CALM 29.77S BLUE HILL N/A 57 51 80 E6 29.77R NORWOOD CLOUDY 57 56 96 CALM 29.77S MARSHFIELD CLOUDY 57 54 88 CALM 29.78R PLYMOUTH LGT RAIN 56 51 84 CALM 29.78R TAUNTON LGT RAIN 57 53 86 CALM 29.77R NEW BEDFORD LGT RAIN 56 53 90 E3 29.76S $$ MAZALL-241300- CAPE COD AND THE ISLANDS CITY SKY/WX TMP DP RH WIND PRES REMARKS FALMOUTH PTSUNNY 55 52 88 MISG 29.78 HYANNIS LGT RAIN 55 52 89 NE5 29.76S CHATHAM LGT RAIN 54 52 93 E6 29.78F PROVINCETOWN CLOUDY 57 53 86 CALM 29.79R NANTUCKET CLOUDY 54 50 86 E8 29.76S MARTHAS VNYRD CLOUDY 56 52 86 NE8 29.75F $$ MAZALL-241300- CENTRAL AND WESTERN MASSACHUSETTS CITY SKY/WX TMP DP RH WIND PRES REMARKS WORCESTER CLOUDY 56 48 74 NE3 29.78R 6HR MIN TEMP: 56; 6HR MAX TEMP: 60; FITCHBURG MOSUNNY 58 52 80 CALM 29.79R ORANGE CLOUDY 54 53 97 CALM 29.78S SPRINGFIELD CLOUDY 57 53 89 CALM 29.76S WESTFIELD CLOUDY 57 54 89 N7 29.77S NORTH ADAMS CLOUDY 54 50 86 CALM 29.77F PITTSFIELD CLOUDY 55 50 83 CALM 29.76S $$ RIZALL-241300- RHODE ISLAND CITY SKY/WX TMP DP RH WIND PRES REMARKS PROVIDENCE CLOUDY 57 56 96 N3 29.78R 6HR MIN TEMP: 56; 6HR MAX TEMP: 58; 6HR PCP: TRACE; NEWPORT CLOUDY 56 54 93 E6 29.76S BLOCK ISLAND CLOUDY 55 52 89 NE7 N/A SMITHFIELD LGT RAIN 55 54 96 CALM 29.78S WESTERLY LGT RAIN 57 55 93 N5 29.76S $$ CTZALL-241300- CONNECTICUT CITY SKY/WX TMP DP RH WIND PRES REMARKS BRADLEY INTL CLOUDY 59 54 83 NE5 29.77R 6HR MIN TEMP: 54; 6HR MAX TEMP: 59; HARTFORD CLOUDY 59 54 83 N3 29.76R BRIDGEPORT CLOUDY 59 55 87 NE7 29.75S DANBURY LGT RAIN 56 53 90 E3 29.77S GROTON LGT RAIN 57 53 86 NE6 29.75S NEW HAVEN CLOUDY 56 54 93 NE5 29.76R CHESTER LGT RAIN 55 55 100 CALM 29.77R MERIDEN LGT RAIN 56 55 97 CALM 29.77R WILLIMANTIC LGT RAIN 57 54 89 NE3 29.78R FOG OXFORD PTSUNNY 57 48 72 CALM 29.78R $$ MEZ002-015-021-024-NHZ003-005-008-011-012-014-VTZ005-008-241300- NORTHERN NEW ENGLAND CITY SKY/WX TMP DP RH WIND PRES REMARKS PORTLAND ME CLOUDY 54 51 90 N3 29.81S 6HR MIN TEMP: 49; 6HR MAX TEMP: 54; BANGOR ME CLOUDY 53 51 93 N3 29.83R CONCORD NH CLOUDY 53 51 93 NW5 29.80S MANCHESTER NH CLOUDY 56 50 80 N7 29.77F NASHUA NH CLOUDY 55 53 93 NW5 29.79S PORTSMOUTH NH CLOUDY 55 52 90 CALM 29.78S JAFFREY NH CLOUDY 53 52 96 VRB3 29.80R KEENE NH CLOUDY 53 51 93 CALM 29.79S BURLINGTON VT PTSUNNY 62 53 72 CALM 29.78S MT. WASHINGTON NOT AVBL $$ NYZ052-076-241300- EASTERN NEW YORK CITY SKY/WX TMP DP RH WIND PRES REMARKS ALBANY CLOUDY 56 51 84 N6 29.76F 6HR MIN TEMP: 52; 6HR MAX TEMP: 57; NEW YORK CITY CLOUDY 59 53 80 NE8 29.73F 6HR MIN TEMP: 57; 6HR MAX TEMP: 61; 6HR PCP: 0.03; $$ ANZALL-241300- MARINE OBSERVATIONS STATION/POSITION TIME TEMP WIND PRES VSBY WAVE AIR SEA DIR/SP/G HT/PER (UTC) (F) (DEG/KT/KT) (MB) (MI) (FT/S) BOSTON BUOY 1050 54 54 130/ 6/ 6 1007.7 1/ 9 BUZZARDS BAY 1100 54 80/ 7/ 7 1008.2F NANTUCKET SOUND 1150 54 1007.6F 1 MASS BAY-STELLWA 1104 54 53 90/ 2/ 2 1008.0R 1 ISLE OF SHOALS 1100 53 60/ 5/ 5 1008.5R S OF BLOCK IS 1155 53 N/A 4/ 7 $$ ......................KEY......................... SKY/WX - SKY CONDITION/PRESENT WEATHER TMP - TEMPERATURE IN FAHRENHEIT DWPT - DEWPOINT IN FAHRENHEIT RH - RELATIVE HUMIDITY IN PERCENT WIND - DIRECTION AND SPEED IN MPH PRES - MEAN SEA LEVEL PRESSURE IN INCHES OF HG WCI - WIND CHILL INDEX VSB - VISIBILITY IN MILES HX - HEAT INDEX TC - TEMPERATURE IN CELSIUS VRB - VARIABLE WIND DIRECTION N/A - NOT AVAILABLE

USA.gov is the U.S. government's official web portal to all federal, state and local government web resources and services.